Zurück zum Katalog

STARLINK-34928

AktivKommunikationSSO
NORAD 65195·PAYLOAD·🇺🇸 United States

Gestartet Aug 14, 2025 von Vandenberg Space Force Base

Loading…

Nächste Überflüge (nächste 24 Stunden)

TLE

AktuellSource: CelesTrak SupGP

Epoche: Sep 14, 2026, 22:30 UTC

1 65195C 25175X   26257.93798611  .00056349  00000+0  17494-2 0  2572
2 65195  97.2848 126.9339 0002146  95.4592 342.1064 15.33404786    18

Verfolge STARLINK-34928 in Echtzeit mit AllMySat

Download on the App Store